Zurück zum Katalog

STARLINK-30553

AktivKommunikationVLEO
NORAD 58056·PAYLOAD·🇺🇸 United States

Gestartet Oct 13, 2023 von Cape Canaveral Space Force Station

Loading…

Nächste Überflüge (nächste 24 Stunden)

TLE

AktuellSource: CelesTrak SupGP

Epoche: Sep 15, 2026, 03:10 UTC

1 58056C 23158F   26258.13243056 -.00014817  00000+0 -53677-3 0  2581
2 58056  43.0031  37.0446 0001740 271.7126 111.9370 15.27578807    12

Verfolge STARLINK-30553 in Echtzeit mit AllMySat

Download on the App Store